Temperature
2 2 2 2 2 2 2 2 1 0 1 2 2 3 2 2 2 2 2 2 2 2 2 2 2 2 3 3 3 3 3 3 3 3 3 3 3 3
1 1 1 1 1 1 1 1 1 0 0 1 2 2 2 1 1 1 1 1 1 2 2 2 2 2 2 2 2 2 2 2 2 2 2 2 3 3
0 0 1 0 0 0 0 0 0 0 -0 1 1 1 1 1 1 1 1 1 1 1 1 1 1 1 1 1 1 1 2 2 2 2 2 2 2 2
-0 -0 -0 -0 -0 -0 -0 -0 -0 -0 -1 -0 0 0 0 0 0 -0 -0 -0 -0 0 0 0 1 1 1 1 1 1 1 1 1 1 1 1 1 1
-1 -1 -1 -1 -1 -1 -1 -1 -1 -1 -1 -1 -1 -1 -1 -1 -1 -1 -1 -1 -1 -1 -1 -0 -0 0 0 0 0 0 0 0 0 0 1 1 1 1
-2 -2 -2 -2 -2 -2 -2 -2 -2 -2 -2 -2 -2 -2 -2 -2 -2 -2 -1 -1 -1 -1 -1 -1 -1 -1 -0 -0 -0 -0 -0 -0 -0 -0 -0 0 0 0
-2 -2 -2 -2 -2 -2 -3 -2 -3 -3 -3 -3 -3 -3 -3 -2 -2 -2 -2 -2 -2 -2 -2 -2 -1 -1 -1 -1 -1 -1 -1 -1 -1 -1 -1 -0 -0 -0
-3 -3 -3 -3 -3 -3 -3 -3 -3 -3 -3 -3 -3 -3 -3 -3 -3 -3 -3 -3 -3 -3 -3 -2 -2 -2 -2 -1 -2 -2 -2 -2 -2 -2 -1 -1 -1 -1
-4 -4 -4 -4 -4 -4 -4 -4 -4 -4 -4 -4 -4 -4 -4 -4 -4 -4 -4 -4 -3 -3 -3 -3 -3 -3 -3 -3 -3 -3 -3 -3 -3 -2 -2 -2 -2 -2
-5 -5 -5 -4 -4 -4 -4 -4 -4 -4 -4 -4 -4 -4 -4 -4 -4 -4 -4 -4 -4 -4 -4 -4 -3 -3 -3 -3 -3 -3 -3 -3 -3 -3 -3 -3 -3 -3
-6 -5 -5 -5 -5 -5 -5 -5 -5 -5 -5 -5 -5 -5 -5 -5 -5 -5 -5 -5 -5 -4 -5 -5 -4 -4 -4 -4 -4 -4 -4 -4 -4 -4 -4 -4 -4 -4
-6 -6 -6 -6 -6 -6 -6 -5 -5 -5 -5 -5 -5 -5 -5 -5 -5 -5 -5 -5 -6 -6 -5 -5 -5 -6 -5 -5 -4 -4 -4 -4 -4 -4 -4 -4 -5 -4
-7 -7 -7 -6 -6 -6 -6 -6 -6 -6 -6 -6 -5 -5 -5 -5 -5 -6 -6 -6 -6 -6 -6 -6 -6 -6 -6 -6 -5 -5 -5 -5 -5 -5 -5 -5 -5 -5
-8 -8 -7 -7 -7 -7 -7 -6 -6 -6 -6 -6 -6 -6 -6 -6 -6 -6 -6 -6 -6 -6 -6 -6 -6 -6 -6 -7 -6 -6 -6 -6 -6 -6 -6 -6 -6 -6
-9 -8 -8 -8 -8 -8 -7 -7 -7 -7 -7 -7 -7 -7 -7 -7 -7 -7 -7 -7 -7 -7 -7 -7 -7 -7 -7 -7 -7 -7 -6 -6 -6 -6 -6 -6 -6 -6
-9 -9 -9 -9 -9 -8 -8 -8 -8 -8 -8 -8 -8 -7 -7 -7 -7 -7 -7 -7 -7 -7 -7 -7 -7 -8 -8 -7 -7 -7 -7 -7 -7 -7 -7 -7 -7 -7
-10 -10 -9 -9 -9 -9 -9 -9 -9 -9 -9 -8 -8 -8 -8 -8 -8 -8 -8 -8 -8 -8 -8 -8 -8 -8 -8 -8 -8 -8 -8 -8 -8 -8 -7 -7 -7 -7
-11 -10 -10 -10 -10 -10 -10 -10 -9 -9 -9 -9 -9 -9 -9 -9 -9 -9 -9 -9 -9 -9 -9 -9 -9 -9 -9 -9 -9 -9 -8 -8 -8 -8 -8 -8 -8 -8
-11 -11 -11 -11 -11 -10 -10 -10 -10 -10 -10 -10 -10 -10 -10 -10 -10 -10 -10 -10 -10 -9 -9 -9 -9 -10 -10 -10 -9 -9 -9 -9 -9 -9 -9 -9 -9 -8
-11 -11 -11 -11 -11 -11 -11 -11 -11 -11 -10 -10 -10 -10 -10 -10 -10 -10 -10 -10 -10 -10 -10 -10 -10 -10 -10 -10 -10 -9 -9 -10 -9 -9 -9 -9 -9 -9
-12 -12 -12 -12 -11 -11 -11 -11 -11 -11 -11 -11 -11 -11 -11 -11 -11 -11 -11 -11 -11 -11 -11 -10 -10 -10 -11 -11 -11 -10 -10 -10 -10 -10 -10 -10 -10 -10
-13 -12 -12 -12 -12 -12 -12 -12 -12 -11 -11 -11 -11 -11 -11 -11 -11 -11 -11 -11 -11 -11 -11 -11 -11 -11 -11 -11 -11 -11 -11 -10 -10 -10 -11 -11 -11 -11
-13 -13 -13 -13 -12 -12 -12 -12 -12 -12 -12 -12 -12 -12 -12 -12 -12 -12 -12 -12 -12 -12 -12 -12 -12 -12 -12 -12 -12 -12 -11 -11 -11 -11 -11 -11 -11 -11
Wind_Speed
6 6 5 4 3 3 4 4 5 4 5 5 4 4 6 6 7 7 8 9 11 11 11 10 10 11 11 11 11 11 11 11 11 11 11 11 12 12
6 6 6 5 4 4 4 4 5 5 6 4 4 3 6 7 9 9 9 10 11 11 11 11 11 12 12 12 12 12 12 12 12 12 12 12 12 12
7 7 8 6 5 5 4 4 5 5 7 5 4 4 5 5 7 9 9 9 9 11 11 11 11 12 12 13 13 12 12 12 12 12 12 12 12 12
8 8 8 7 7 6 5 6 6 5 6 7 5 4 5 6 6 6 7 9 9 11 12 12 12 11 12 12 12 12 12 12 12 12 12 12 12 12
8 9 9 8 8 7 7 7 6 6 5 6 6 4 4 4 4 5 6 6 9 10 11 12 12 12 12 12 12 12 13 12 12 12 12 12 12 12
8 8 9 10 10 9 8 8 7 7 6 6 6 5 5 4 4 4 5 4 5 8 10 11 12 13 13 12 12 13 13 12 12 12 12 12 12 12
8 8 9 11 12 11 9 8 8 7 7 7 6 5 5 4 5 4 6 4 5 5 5 7 8 8 10 11 12 12 12 12 12 12 12 12 12 12
8 8 9 10 12 15 16 14 12 10 9 8 7 8 7 6 5 5 5 4 5 4 4 6 6 6 7 9 11 12 13 12 12 12 11 12 12 12
8 7 8 8 10 8 12 14 14 16 15 10 10 10 8 7 7 7 7 6 7 4 4 6 4 6 7 10 12 13 13 13 12 12 11 11 11 11
8 8 8 8 8 8 8 10 10 11 13 11 11 10 9 9 9 9 8 6 5 4 5 5 5 5 7 9 13 13 13 13 13 12 12 12 12 12
8 8 9 8 12 13 10 10 10 10 13 16 16 15 15 15 12 6 6 6 6 5 4 4 4 4 4 6 11 13 13 13 13 13 12 12 12 12
7 7 10 11 12 13 9 9 11 10 8 8 10 11 11 12 14 10 8 8 5 5 5 5 3 2 3 4 6 8 10 12 13 13 13 12 12 8
6 6 7 11 13 13 11 8 11 9 7 7 7 6 6 7 8 10 9 8 8 6 4 4 3 3 4 3 3 5 7 7 8 10 11 11 11 9
7 6 7 11 13 13 11 10 12 10 5 6 6 6 6 6 6 7 9 9 9 8 8 7 4 5 4 4 4 3 4 6 6 6 6 9 10 11
7 10 11 12 12 10 11 11 9 6 5 6 7 7 6 5 5 5 5 6 6 8 10 10 6 5 5 6 5 4 3 4 5 5 6 6 6 6
7 9 12 13 10 9 8 7 6 6 6 6 6 5 4 4 5 4 5 5 4 4 5 8 9 7 6 5 5 5 4 4 4 5 5 6 7 8
6 5 4 4 4 4 4 4 5 5 6 5 5 5 5 5 5 4 4 4 5 5 4 3 4 5 5 5 5 6 5 5 5 4 4 5 6 7
6 4 4 5 5 5 5 5 5 5 5 5 5 5 6 6 5 4 4 5 6 5 5 4 3 3 3 4 7 6 5 5 4 4 4 5 7 6
5 4 5 5 5 5 5 5 5 5 5 5 6 6 6 6 6 6 6 5 6 5 5 4 4 5 6 8 5 7 6 4 4 4 5 5 7 6
4 4 5 5 5 5 5 5 5 5 5 5 6 6 6 6 6 6 6 7 7 6 5 5 6 7 8 7 5 4 8 6 5 5 5 4 5 8
5 4 5 5 5 5 5 5 6 6 5 5 6 6 6 6 7 7 7 9 8 7 7 7 7 8 4 2 4 5 4 8 8 6 5 4 5 5
5 5 5 5 5 5 5 5 5 5 6 6 6 6 6 6 7 7 7 7 7 7 7 5 4 4 4 6 7 6 5 4 6 9 10 9 6 5
5 5 5 5 5 5 5 5 6 6 6 6 6 6 6 6 6 6 7 7 6 7 6 5 4 4 5 6 6 6 6 5 4 4 6 10 12 14
Wind_Direction
224 223 228 232 224 216 205 193 194 230 243 233 230 228 230 240 254 259 258 264 266 268 271 271 273 271 266 264 265 266 267 270 272 274 277 279 279 278
225 219 225 227 224 223 219 215 210 215 239 228 229 245 248 254 258 260 260 267 268 268 268 268 269 267 267 265 262 262 263 265 268 271 272 274 276 275
230 224 226 221 223 223 223 222 222 216 239 257 249 246 234 244 257 256 256 259 260 263 264 265 268 268 266 263 262 262 263 264 267 269 269 269 271 273
232 227 229 226 223 223 223 227 228 223 229 251 257 245 240 236 240 247 253 253 253 259 262 262 262 264 268 266 263 262 262 263 265 268 269 268 270 271
233 229 227 222 228 227 225 228 230 235 230 240 253 249 249 241 243 255 254 250 252 255 257 258 261 263 265 264 265 265 261 262 263 265 267 267 268 269
240 236 230 224 226 224 228 227 225 226 229 235 246 249 248 238 230 243 257 246 252 253 252 257 261 262 263 265 267 267 262 260 261 264 268 265 265 266
243 242 241 237 234 230 231 223 218 223 226 233 243 249 246 235 232 231 247 254 256 242 245 254 257 256 258 262 263 263 264 263 264 265 266 263 262 263
245 246 247 245 243 243 243 239 229 225 225 229 238 239 240 234 232 234 239 248 259 226 229 258 245 250 249 250 260 262 265 266 265 266 266 262 263 263
244 246 251 248 246 241 245 246 243 240 235 230 233 237 234 227 223 232 232 239 248 232 226 255 245 254 251 254 259 260 261 263 266 268 269 264 264 265
246 244 246 247 245 245 244 241 239 239 237 235 235 237 233 223 219 228 233 243 263 245 221 245 245 250 256 251 254 256 260 261 264 268 271 268 266 266
252 247 245 242 247 249 246 245 244 246 248 243 241 241 241 237 228 222 222 231 254 249 214 225 243 259 258 248 247 253 257 262 266 268 267 271 270 268
255 252 253 252 252 249 241 240 243 244 240 244 244 245 241 237 233 222 219 225 241 248 212 211 231 238 261 252 239 248 254 260 266 267 266 268 270 264
256 254 253 259 259 257 253 242 247 248 235 233 239 241 237 231 229 226 221 221 228 238 214 200 219 222 236 263 266 245 240 246 254 260 261 260 263 262
256 256 255 260 262 262 258 254 257 256 241 233 236 239 237 235 230 226 225 227 231 236 219 206 223 224 235 257 266 266 248 242 239 245 252 261 264 267
267 265 266 265 264 263 262 261 258 249 237 236 237 236 233 230 226 226 229 231 237 237 224 218 221 223 226 241 253 262 272 263 236 234 239 243 250 255
276 272 269 267 263 260 258 257 251 244 238 237 237 236 227 223 226 223 229 224 235 246 237 225 220 219 234 241 244 255 249 249 248 242 243 249 251 249
271 270 264 261 255 251 250 249 245 243 244 236 232 234 234 232 231 221 220 221 230 235 239 237 229 230 234 237 248 250 248 256 255 245 250 259 257 250
279 268 263 260 257 252 249 249 244 241 238 234 233 232 232 231 231 226 221 222 229 233 235 232 225 251 270 265 237 243 245 250 258 246 245 255 267 259
275 268 265 261 259 254 250 249 249 246 239 235 235 233 231 230 227 226 226 228 231 232 231 226 221 224 242 256 250 225 231 244 247 251 248 248 263 267
274 270 269 268 266 260 253 251 250 248 241 236 235 234 227 226 227 225 224 226 230 231 231 227 223 222 230 245 256 256 234 231 235 249 260 267 273 275
282 276 273 271 268 266 261 253 247 245 241 236 235 233 226 222 228 229 226 230 231 227 230 234 235 236 234 233 258 262 251 241 242 242 244 259 273 277
282 278 276 274 270 266 265 260 251 245 242 239 236 233 227 223 226 227 226 227 230 230 235 241 226 217 218 230 247 256 263 265 262 262 253 248 244 245
283 281 278 276 272 267 261 258 256 251 245 240 239 234 227 225 227 226 226 227 230 232 234 235 229 226 232 234 242 252 255 258 263 267 270 264 264 267
Height
1506 1507 1508 1510 1511 1512 1513 1514 1515 1513 1512 1513 1515 1517 1518 1519 1519 1519 1519 1520 1520 1520 1520 1521 1521 1521 1521 1521 1521 1521 1521 1521 1521 1521 1521 1521 1522 1522
1500 1501 1502 1504 1505 1506 1507 1508 1509 1509 1508 1507 1509 1511 1512 1513 1514 1514 1514 1514 1515 1515 1515 1515 1515 1515 1515 1515 1516 1516 1516 1516 1515 1515 1515 1516 1516 1516
1493 1494 1495 1497 1498 1499 1501 1502 1503 1504 1502 1502 1504 1505 1506 1507 1507 1508 1508 1508 1508 1509 1509 1509 1510 1510 1510 1510 1510 1510 1509 1510 1509 1509 1509 1509 1510 1510
1486 1487 1488 1490 1491 1493 1494 1495 1496 1497 1497 1496 1497 1499 1499 1500 1501 1501 1502 1502 1502 1503 1503 1503 1504 1504 1504 1503 1503 1503 1503 1503 1503 1503 1503 1503 1503 1503
1479 1480 1481 1483 1484 1485 1487 1488 1489 1490 1491 1490 1490 1492 1493 1494 1494 1495 1495 1496 1496 1496 1497 1497 1497 1497 1497 1497 1497 1496 1496 1496 1496 1496 1496 1496 1496 1496
1472 1473 1474 1475 1477 1478 1479 1481 1482 1483 1484 1484 1484 1485 1486 1487 1487 1487 1488 1489 1489 1490 1490 1490 1491 1491 1491 1491 1490 1489 1489 1489 1489 1489 1489 1488 1489 1489
1465 1466 1467 1468 1469 1471 1472 1473 1475 1476 1476 1477 1477 1478 1479 1480 1480 1481 1482 1482 1482 1483 1483 1483 1484 1483 1483 1484 1483 1483 1482 1482 1482 1482 1482 1482 1482 1482
1458 1459 1460 1461 1462 1464 1465 1466 1468 1469 1469 1470 1470 1470 1471 1473 1474 1475 1476 1475 1475 1476 1476 1476 1477 1476 1476 1477 1477 1477 1477 1476 1476 1476 1475 1475 1475 1476
1451 1452 1452 1453 1455 1456 1457 1458 1460 1461 1462 1463 1462 1462 1464 1466 1468 1468 1469 1469 1468 1469 1470 1468 1469 1469 1470 1470 1470 1471 1470 1470 1470 1469 1469 1468 1469 1469
1444 1445 1446 1446 1448 1449 1450 1450 1451 1452 1454 1455 1455 1456 1458 1460 1461 1462 1462 1462 1462 1463 1464 1462 1461 1462 1463 1463 1463 1464 1464 1464 1464 1463 1463 1462 1463 1463
1437 1438 1439 1439 1441 1442 1443 1443 1443 1444 1446 1448 1449 1450 1451 1453 1454 1455 1455 1456 1454 1454 1457 1456 1455 1455 1455 1455 1456 1457 1458 1458 1458 1457 1456 1456 1456 1456
1430 1431 1432 1432 1434 1435 1435 1435 1435 1436 1439 1440 1441 1442 1443 1445 1446 1448 1448 1449 1448 1448 1449 1450 1449 1450 1448 1448 1450 1450 1450 1451 1451 1451 1450 1450 1450 1450
1423 1424 1424 1426 1427 1427 1428 1428 1428 1430 1431 1432 1433 1434 1435 1437 1438 1439 1441 1442 1442 1442 1443 1444 1444 1445 1445 1443 1443 1444 1444 1444 1444 1444 1444 1444 1444 1443
1417 1417 1418 1419 1419 1420 1421 1421 1423 1423 1424 1424 1425 1426 1427 1429 1430 1432 1433 1434 1435 1436 1437 1439 1439 1439 1439 1438 1437 1437 1438 1438 1438 1438 1438 1437 1437 1437
1411 1411 1412 1412 1412 1413 1413 1414 1415 1416 1416 1417 1417 1418 1420 1422 1423 1425 1426 1427 1428 1429 1430 1432 1433 1433 1433 1432 1431 1432 1432 1432 1432 1432 1432 1431 1431 1430
1405 1405 1405 1405 1405 1406 1407 1407 1408 1409 1409 1410 1410 1412 1414 1415 1416 1418 1419 1420 1421 1421 1423 1425 1426 1427 1426 1426 1426 1426 1426 1426 1426 1426 1426 1425 1424 1424
1400 1399 1399 1398 1398 1399 1399 1400 1401 1402 1402 1403 1404 1405 1407 1408 1409 1411 1412 1413 1414 1414 1416 1418 1419 1420 1420 1420 1420 1419 1420 1420 1420 1420 1419 1418 1417 1417
1395 1393 1392 1392 1392 1392 1393 1393 1395 1395 1396 1397 1398 1399 1400 1401 1402 1404 1405 1406 1407 1408 1409 1411 1412 1413 1413 1413 1414 1413 1414 1414 1414 1414 1413 1412 1410 1410
1389 1387 1387 1386 1386 1386 1387 1387 1388 1389 1390 1391 1391 1392 1394 1395 1396 1397 1398 1399 1400 1401 1402 1404 1405 1406 1406 1404 1405 1407 1408 1407 1407 1407 1407 1406 1404 1403
1383 1382 1382 1381 1381 1381 1381 1382 1382 1383 1384 1384 1385 1386 1387 1388 1389 1390 1391 1392 1393 1394 1396 1397 1398 1399 1399 1399 1399 1399 1401 1401 1401 1400 1400 1399 1398 1397
1379 1378 1377 1376 1376 1376 1376 1376 1376 1377 1377 1378 1378 1379 1380 1381 1382 1383 1384 1386 1387 1388 1388 1389 1391 1393 1394 1394 1393 1391 1393 1395 1395 1394 1394 1393 1391 1390
1374 1373 1372 1371 1371 1371 1371 1371 1371 1371 1371 1371 1372 1372 1373 1374 1375 1376 1378 1379 1380 1381 1382 1383 1385 1386 1387 1387 1386 1385 1386 1387 1388 1388 1388 1387 1386 1383
1369 1368 1367 1366 1366 1365 1365 1365 1365 1365 1365 1365 1365 1366 1367 1368 1369 1370 1371 1372 1374 1375 1376 1377 1378 1379 1379 1380 1380 1380 1380 1380 1380 1380 1380 1380 1380 1378